Погода в Тбилиси

Погода в Тбилиси : погода сейчас, прогноз погоды и архив. Всё, что Вы хотите узнать о погоде в Тбилиси!

Поиск расширенной информации на нашем сайте:

Другие новости

Новости СМИ2

Главная страница сайта

Новости сайта

02.10.2013

Напоминаем, что на нашем новом сайте вы можете получить высокодетализированные прогнозы погоды по пунктам России, СНГ и мира (включающие важные для авиации метеовеличины, такие как направление и скорость ветра, видимость, явления погоды, количество и форма облачности, нижняя и верхняя граница облачности), а также ознакомиться с разнообразными материалами по авиационной метеорологии и подборкой полезных ссылок на эту тему.

Сайт Метеоцентр.Азия посвящён разработке технологий оптимизации авиаметеорологического обслуживания, включая проектирование и перспективное создание нескольких автоматизированных авиаметеорологических систем:
- система выпуска высокодетальных прогностических карт явлений погоды для нижнего воздушного пространства по России и ближнему зарубежью;
- система верификации прогнозов TAF (выпускаемых синоптиками официальных АМСГ РФ и ближнего зарубежья) и AUTOTAF (выпускаемых сайтом Метеоцентр.Азия) - выявление ошибок, онлайн-сопоставление с фактической погодой METAR, автоматическое внесение коррективов в прогнозы при резком отклонении фактической погоды от прогноза, подсчёт оправдываемости прогнозов по элементам и в целом;
- система обработки, анализа и отображения авиаметеорологической информации для применения провайдерами метеорологической информации.

Рекомендуем: ауди БМВ мерседес кузовной ремонт

Погода в Тбилиси - сегодня

Время (UTC), дата Ветер
(°,м/с) 
Видим.   Явления Облачность Т
(°С)
Тd
(°С)
f(%) Тe
(°С)
Pmin
(гПа)
dP
(гПа)
Po
(мм)
O2
(г/м3)
Тmin Tmax R s Состояние
почвы
03 25.05.17 360 (С) 20000 м    3/3 600 м 
[Cu hum]
+11.2 +10 92 +12  1017.2  -0.5  725  279           
06 25.05.17 360 (С) 20000 м    ясно 
+17.3 +10.7 65 +20  1015.5  -0.7  725  273           
09 25.05.17 360 (С) 20000 м    4/4 600 м 
[Cu hum]
+22.5 +12.1 52 +27  1014.2  -0.4  724  267           
12 25.05.17 320 (СЗ) 20000 м    ясно 
+24.5 +11.9 45 +29  1012.8  -1  724  265           
15 25.05.17 320 (СЗ) 20000 м    5/5 600 м 
[Cu hum]
+23.1 +11.5 48 +27  1013.7  0.7  724  267    +25.4       
18 25.05.17 290 (З) н/о    6/6 600 м 
[Cu hum]
+17.8 +9 56 +19  1016.7  1.8  725  273    +25.4       
21 25.05.17 тихо ()   н/о    8/8 600 м 
[Cu hum]
+16.3 +10.6 69 +19  1017.2  0.4  726  274           
00 26.05.17 340 (С) н/о    9/6 600 м средняя 
[Cu hum|Ac lent]
+14.1 +9.9 76 +16  1018.1  0.3  726  276           
03 26.05.17 тихо ()   20000 м    10/10 600 м 
[Ns]
+12.5 +10.2 86 +15  1019.1  0.9  727  278           
06 26.05.17 110 (В) 20000 м    10/5 600 м средняя, верхняя 
[Cu hum|Ac lent|Ci]
+19.1 +14.7 76 +29  1017.1  -0.8  726  270           
09 26.05.17 140 (ЮВ) 20000 м    6/4 600 м верхняя 
[Cu hum|Ci]
+21.9 +16.1 70 +34  1014.3  -2.2  724  267           
12 26.05.17 140 (ЮВ) 20000 м    4/4 600 м 
[Cu hum]
+23.4 +17.4 69 +38  1011.8  -2.1  723  264           
21 26.05.17 тихо ()   н/о  в посл. час дождь  10/10 600 м 
[Ns]
+15.5 +15.5 100 +26  1014.6  0.1  724  273           
00 27.05.17 тихо ()   н/о    8/8 600 м 
[Cu hum]
+13.9 +13.9 100 +22  1013.9  -1  723  274           
03 27.05.17 тихо ()   20000 м    5/5 600 м 
[Cu hum]
+14.5 +13.9 96 +22  1013.9  723  274         
09 27.05.17 140 (ЮВ) 20000 м    6/4 600 м кучево-дожд., средняя 
[Cb calv|Ac lent]
+22.3 +15.5 65 +33  1010.4  -1.4  722  265           
12 27.05.17 160 (Ю) 20000 м    9/9 600 м 
[Sc]
+24 +15 57 +34  1007.9  -2.1  720  264           
21 27.05.17 320 (СЗ) н/о    6/4 600 м средняя 
[Sc|Ac lent]
+16.5 +14.4 87 +25  1012.8  723  272           
00 28.05.17 000 (С) н/о    5/3 600 м средняя 
[Sc|Ac lent]
+14.5 +13.2 92 +22  1013.8  0.6  723  274           
03 28.05.17 тихо ()   20000 м    9/9 600 м 
[Sc]
+14.9 +13.4 91 +22  1017.9  0.2  723  274      0.0     
09 28.05.17 340 (С) 20000 м    8/8 600 м кучево-дожд. 
[Cb calv]
+23.9 +14.5 56 +33  1010  -1.6  722  264           
12 28.05.17 270 (З) 20000 м  гроза, ливневой дождь  9/9 600 м кучево-дожд. 
[Cb calv]
+19.7 +14.8 73 +29  1012.4  1.6  723  268           
21 28.05.17 200 (Ю) н/о    3/3 600 м 
[Cu hum]
+16.1 +13.6 85 +23  1016.9  725  273           
00 29.05.17 290 (З) н/о    3/3 600 м 
[Cu hum]
+14.3 +13.2 93 +19  1018.4  1.1  726  275           
03 29.05.17 290 (З) 20000 м    ясно 
+14.7 +13.6 93 +21  1019.2  0.7  727  275           
Время (UTC), дата Ветер
(°,м/с) 
Видим.   Явления Облачность Т
(°С)
Тd
(°С)
f(%) Тe
(°С)
Pmin
(гПа)
dP
(гПа)
Po
(мм)
O2
(г/м3)
Тmin Tmax R s Состояние
почвы

Для получения пояснительной информации подведите курсор к названию столбца.

ПОГОДА в Тбилиси - архив

Всё, что Вы хотите узнать о погоде в Тбилиси - удобно и подробно!

Выберите нужную дату (начиная с 1 января 2015* года) и нажмите кнопку "Найти".
Будут отображены архивные сводки погоды по пункту Тбилиси, начиная с указанной даты.


Отображать данные в формате CSV (для использования в таблицах Excel)


Внимание! Наш архив погоды предназначен исключительно для личного некоммерческого использования в познавательных целях. Если Вам необходимы официальные справки о состоянии погоды (для производственных, юридических, коммерческих и т.п. целей), обращайтесь в органы Росгидромета.

*Примечание: данная дата относится к архиву по метеостанциям СССР (Россия, СНГ, Балтия).
Архив по метеостанциям Зарубежной Европы и Азии (кроме Китая) хранится 10 дней, по другим регионам земного шара (Китай, Африка, Америка, Австралия, Океания) - 1 день.

Тбилиси - район местоположения метеостанции


Название, широта, долгота, высота метеостанции:
Тбилиси 41.7°ш. 44.8°д. 403 м над ур. моря [Грузия]

Дополнительная информация

В oтличие oт бoльшинства пoгoдных сайтoв мы публикуем пoдрoбную метеoинфoрмацию в детальнoм прoфессиoнальнoм фoрмате.

Характеристики температуры и влажнoсти вoздуха измеряются на высoте 2 м в тени вдали oт зданий и деревьев.
Скoрoсть ветра измеряется на высoте 10 м (на урoвне рoста челoвека скoрoсть ветра ниже в 1.5-2 раза). Если метеoстанция нахoдится в гoрoде или в лесу, тo скoрoсть ветра занижена на 2-4 м/с пo сравнению с oткрытым местoм. Скoрoсть ветра над акватoриями крупных рек и oзёр, а также на вершинах хoлмoв на 2-5 м/с выше, чем в oбычных услoвиях.
Атмoсфернoе давление в разных тoчках местнoсти мoжет значительнo oтличаться oт давления на метеoстанции, в зависимoсти oт услoвий рельефа (при пoдъёме на 10 м давление пoнижается примернo на 1 мм рт.ст.).